Stephenville, TX

2:14 PM CDT on July 26, 2016 (GMT -0500)
Clark Municipal

Weather History for KSEP - August, 2013

Change the Weather History Date:

Saturday, August 31, 2013

  Actual Average Record
Temperature  
Mean Temperature 86 °F -  
Max Temperature 102 °F 91 °F 105 °F (1954)
Min Temperature 72 °F 68 °F 59 °F (2004)
Cooling Degree Days 22    
Growing Degree Days 36 (Base 50)    
Moisture  
Dew Point 58 °F    
Average Humidity 39    
Maximum Humidity 69    
Minimum Humidity 19    
Precipitation  
Precipitation 0.00 in - - ()
Sea Level Pressure  
Sea Level Pressure 29.93 in    
Wind  
Wind Speed 2 mph (SSW)    
Max Wind Speed 9 mph    
Max Gust Speed -    
Visibility 10 miles    
Events      
Averages and records for this station are not official NWS values.
T = Trace of Precipitation, MM = Missing Value Source: NWS Daily Summary

Daily Weather History Graph

Daily Weather History Graph

Search for Another Location

Airport or City:

Trip Planner

Search our weather history database for the weather conditions in past years. The results will help you decide how hot, cold, wet, or windy it might be!

Date:

Astronomy

Aug. 31, 2013 Rise Set
Actual Time 7:07 AM CDT 7:57 PM CDT
Civil Twilight 6:42 AM CDT 8:22 PM CDT
Nautical Twilight 6:12 AM CDT 8:52 PM CDT
Astronomical Twilight 5:42 AM CDT 9:22 PM CDT
Moon 2:47 AM CDT (8/31) 4:48 PM CDT (8/31)
Length of Visible Light 13h 40m
Length of Day
12h 50m
Waning Crescent, 21% of the Moon is Illuminated
Aug 31
Waning Crescent
Sep 5
New
Sep 12
First Quarter
Sep 19
Full
Sep 26
Last Quarter

Hourly Weather History & Observations

Time (CDT) Temp. Heat Index Dew Point Humidity Pressure Visibility Wind Dir Wind Speed Gust Speed Precip Events Conditions
12:15 AM 82.6 °F 82.2 °F 57.2 °F 42% 29.94 in 10.0 mi Calm Calm - N/A   Clear
12:35 AM 81.7 °F 81.8 °F 58.3 °F 45% 29.95 in 10.0 mi Calm Calm - N/A   Clear
12:55 AM 81.7 °F 81.6 °F 57.7 °F 44% 29.95 in 10.0 mi SW 4.6 mph - N/A   Clear
1:15 AM 79.9 °F - 59.5 °F 50% 29.95 in 10.0 mi Calm Calm - N/A   Clear
1:35 AM 79.2 °F - 58.8 °F 50% 29.95 in 10.0 mi Calm Calm - N/A   Clear
1:55 AM 79.9 °F - 59.0 °F 49% 29.95 in 10.0 mi Calm Calm - N/A   Clear
2:15 AM 80.1 °F 80.6 °F 57.9 °F 47% 29.94 in 10.0 mi Calm Calm - N/A   Scattered Clouds
2:35 AM 80.1 °F 80.6 °F 57.9 °F 47% 29.94 in 10.0 mi Calm Calm - N/A   Clear
2:55 AM 79.0 °F - 58.5 °F 49% 29.95 in 10.0 mi Calm Calm - N/A   Clear
3:15 AM 79.0 °F - 59.0 °F 50% 29.95 in 10.0 mi Calm Calm - N/A   Clear
3:35 AM 78.3 °F - 58.1 °F 50% 29.95 in 10.0 mi Calm Calm - N/A   Clear
3:55 AM 77.4 °F - 58.3 °F 52% 29.95 in 10.0 mi Calm Calm - N/A   Clear
4:15 AM 76.5 °F - 59.0 °F 55% 29.95 in 10.0 mi Calm Calm - N/A   Clear
4:35 AM 76.1 °F - 60.1 °F 57% 29.95 in 10.0 mi Calm Calm - N/A   Clear
4:55 AM 73.4 °F - 61.7 °F 67% 29.95 in 10.0 mi Calm Calm - N/A   Clear
5:15 AM 74.5 °F - 60.6 °F 62% 29.95 in 10.0 mi Calm Calm - N/A   Clear
5:35 AM 74.1 °F - 60.1 °F 61% 29.95 in 10.0 mi Calm Calm - N/A   Clear
5:55 AM 72.7 °F - 60.8 °F 66% 29.95 in 10.0 mi Calm Calm - N/A   Clear
6:15 AM 72.0 °F - 61.2 °F 69% 29.95 in 10.0 mi Calm Calm - N/A   Clear
6:35 AM 72.5 °F - 60.8 °F 67% 29.96 in 10.0 mi Calm Calm - N/A   Clear
6:55 AM 72.5 °F - 60.8 °F 67% 29.96 in 10.0 mi Calm Calm - N/A   Clear
7:15 AM 72.1 °F - 60.8 °F 67% 29.96 in 10.0 mi Calm Calm - N/A   Clear
7:35 AM 72.5 °F - 60.3 °F 65% 29.97 in 10.0 mi Calm Calm - N/A   Clear
7:55 AM 72.9 °F - 60.6 °F 65% 29.97 in 10.0 mi Calm Calm - N/A   Clear
8:15 AM 73.8 °F - 62.6 °F 68% 29.97 in 10.0 mi Calm Calm - N/A   Clear
8:35 AM 75.7 °F - 62.2 °F 63% 29.97 in 10.0 mi Calm Calm - N/A   Clear
8:55 AM 78.1 °F - 62.1 °F 58% 29.98 in 10.0 mi Calm Calm - N/A   Clear
9:15 AM 80.6 °F 81.9 °F 63.1 °F 55% 29.98 in 10.0 mi SW 4.6 mph - N/A   Clear
9:35 AM 84.6 °F 85.0 °F 61.9 °F 46% 29.98 in 10.0 mi WSW 5.8 mph - N/A   Clear
9:55 AM 87.3 °F 87.0 °F 60.4 °F 40% 29.98 in 10.0 mi West 6.9 mph - N/A   Clear
10:15 AM 89.1 °F 88.8 °F 60.3 °F 38% 29.98 in 10.0 mi WSW 8.1 mph - N/A   Clear
10:35 AM 90.9 °F 90.3 °F 59.4 °F 35% 29.98 in 10.0 mi West 9.2 mph - N/A   Clear
10:55 AM 91.9 °F 91.2 °F 59.2 °F 33% 29.98 in 10.0 mi West 6.9 mph - N/A   Clear
11:15 AM 92.7 °F 91.8 °F 58.6 °F 32% 29.97 in 10.0 mi WNW 8.1 mph - N/A   Clear
11:35 AM 93.0 °F 92.3 °F 59.0 °F 32% 29.97 in 10.0 mi West 8.1 mph - N/A   Clear
11:55 AM 94.1 °F 93.5 °F 59.2 °F 31% 29.97 in 10.0 mi West 6.9 mph - N/A   Clear
12:15 PM 95.7 °F 94.7 °F 57.7 °F 28% 29.97 in 10.0 mi West 4.6 mph - N/A   Clear
12:35 PM 96.1 °F 95.2 °F 57.9 °F 28% 29.97 in 10.0 mi Calm Calm - N/A   Clear
12:55 PM 97.0 °F 96.1 °F 57.4 °F 27% 29.95 in 10.0 mi West 5.8 mph - N/A   Clear
1:15 PM 97.9 °F 96.6 °F 56.3 °F 25% 29.94 in 10.0 mi Calm Calm - N/A   Clear
1:35 PM 96.8 °F 95.1 °F 55.9 °F 25% 29.94 in 10.0 mi Calm Calm - N/A   Clear
1:55 PM 99.9 °F 98.1 °F 55.2 °F 22% 29.93 in 10.0 mi SE 4.6 mph - N/A   Clear
2:15 PM 99.1 °F 97.9 °F 55.9 °F 24% 29.93 in 10.0 mi ENE 3.5 mph - N/A   Clear
2:35 PM 99.9 °F 98.5 °F 55.9 °F 23% 29.91 in 10.0 mi Calm Calm - N/A   Clear
2:55 PM 100.6 °F 98.6 °F 53.8 °F 21% 29.91 in 10.0 mi SSE 3.5 mph - N/A   Clear
3:15 PM 100.4 °F 98.0 °F 53.1 °F 20% 29.90 in 10.0 mi SE 3.5 mph - N/A   Clear
3:35 PM 101.3 °F 99.6 °F 54.3 °F 21% 29.89 in 10.0 mi East 3.5 mph - N/A   Clear
3:55 PM 101.3 °F 99.2 °F 53.6 °F 20% 29.89 in 10.0 mi Calm Calm - N/A   Clear
4:15 PM 101.3 °F 99.6 °F 54.3 °F 21% 29.88 in 10.0 mi Calm Calm - N/A   Scattered Clouds
4:35 PM 100.6 °F 98.6 °F 53.4 °F 21% 29.87 in 10.0 mi Calm Calm - N/A   Mostly Cloudy
4:55 PM 100.9 °F - 52.2 °F 19% 29.87 in 10.0 mi Calm Calm - N/A   Scattered Clouds
5:15 PM 101.5 °F - 52.3 °F 19% 29.87 in 10.0 mi West 4.6 mph - N/A   Clear
5:35 PM 101.3 °F - 52.9 °F 20% 29.86 in 10.0 mi West 8.1 mph - N/A   Clear
5:55 PM 101.3 °F - 52.0 °F 19% 29.86 in 10.0 mi WSW 5.8 mph - N/A   Clear
6:15 PM 100.8 °F 98.5 °F 53.1 °F 20% 29.86 in 10.0 mi South 4.6 mph - N/A   Clear
6:35 PM 100.0 °F - 52.7 °F 20% 29.86 in 10.0 mi WSW 5.8 mph - N/A   Clear
6:55 PM 99.9 °F 97.7 °F 53.1 °F 21% 29.86 in 10.0 mi Calm Calm - N/A   Clear
7:15 PM 99.0 °F 96.5 °F 53.1 °F 21% 29.86 in 10.0 mi Calm Calm - N/A   Clear
7:35 PM 97.9 °F 95.8 °F 54.0 °F 23% 29.86 in 10.0 mi Calm Calm - N/A   Clear
7:55 PM 96.3 °F 94.0 °F 54.5 °F 24% 29.86 in 10.0 mi SE 3.5 mph - N/A   Mostly Cloudy
8:15 PM 95.2 °F 93.3 °F 54.9 °F 26% 29.86 in 10.0 mi SSE 4.6 mph - N/A   Mostly Cloudy
8:35 PM 93.4 °F 91.5 °F 55.6 °F 28% 29.87 in 10.0 mi SSE 4.6 mph - N/A   Mostly Cloudy
8:55 PM 92.1 °F 90.2 °F 55.9 °F 29% 29.88 in 10.0 mi SE 5.8 mph - N/A   Mostly Cloudy
9:15 PM 90.7 °F 89.2 °F 56.7 °F 32% 29.88 in 10.0 mi SE 3.5 mph - N/A   Scattered Clouds
9:35 PM 89.6 °F 88.1 °F 56.7 °F 33% 29.89 in 10.0 mi SE 4.6 mph - N/A   Clear
9:55 PM 89.4 °F 88.2 °F 57.2 °F 34% 29.89 in 10.0 mi SSE 6.9 mph - N/A   Clear
10:15 PM 88.7 °F 87.5 °F 57.6 °F 35% 29.89 in 10.0 mi SSE 6.9 mph - N/A   Clear
10:35 PM 88.3 °F 87.3 °F 58.1 °F 36% 29.89 in 10.0 mi SSE 4.6 mph - N/A   Clear
10:55 PM 88.3 °F 87.3 °F 58.1 °F 36% 29.89 in 10.0 mi South 6.9 mph - N/A   Clear
11:15 PM 87.3 °F 86.5 °F 58.5 °F 38% 29.89 in 10.0 mi South 4.6 mph - N/A   Clear
11:35 PM 85.6 °F 85.0 °F 59.0 °F 40% 29.89 in 10.0 mi South 3.5 mph - N/A   Clear
11:55 PM 84.6 °F 84.4 °F 59.5 °F 43% 29.88 in 10.0 mi South 3.5 mph - N/A   Clear